www.pogodaiklimat.ru

Погода и климат >> Архив погоды >> Индонезия >> Sintang


ПОГОДА в Sintang

  • Прогноз погоды в Sintang
  • Монитор погоды в Sintang
  • Климат города

АРХИВ ПОГОДЫ в Sintang

Время (UTC), дата Ветер
(напр.,м/с)
 
Видим.   Явления Облачность Т
(С)
Тd
(С)
f
(%)
Тe
(С)
Тes
(С)
Комфортность P
(гПа)
Po
(гПа)
Тmin
(С)
Tmax
(С)
R
(мм)
R24
(мм)
S
(см)
00 15.10 штиль 0 5000 м 10/6 400 м
[Cu hum As trans]
+24.4 +23.4 94 +33 +33 очень
душно
1013.6 1010.1 +22.4
03 15.10 В 2 7000 м 8/6 420 м
[Cu med, cong Ac trans]
+28.0 +23.3 76 +38 +43 очень
душно
1012.1 1008.9
06 15.10 ЮВ 2 8000 м 6/5 450 м
[Cu med, cong Ac trans Ci fib]
+31.0 +23.4 64 +42 +51 опасность
перегрева
1010.3 1007.1
09 15.10 штиль 0 9000 м 5/4 480 м
[Cu med, cong Ac trans Ci fib]
+32.5 +21.7 53 +41 +43 опасность
перегрева
1008.8 1005.6
12 15.10 В 3 6000 м гроза без осадков {дождь} 10/5 400 м
[Cb cap As trans]
+26.2 +23.2 84 +35 +35 очень
душно
1011.6 1008.4 +33.0 0.0
00 16.10 штиль 0 5000 м дымка 9/5 270 м
[Sc Ac As Ci]
+24.7 +23.7 94 +34 +35 очень
душно
1013.0 1009.8 +22.6 0.0
03 16.10 Ю 2 9000 м 8/6 300 м
[Cu med, cong Ac trans]
+30.6 +24.6 70 +43 +48 опасность
перегрева
1012.3 1009.1
06 16.10 Ю 3 10 км 8/5 300 м
[Cu med, cong Ac trans]
+33.3 +22.7 54 +43 +48 опасность
перегрева
1008.7 1005.5
09 16.10 штиль 0 10 км 8/3 500 м
[Cu med, cong Ac trans Ci fib]
+31.9 +23.8 62 +43 +45 опасность
перегрева
1007.6 1004.4
12 16.10 штиль 0 7000 м 8/3 480 м
[Cu med, cong Ac trans]
+27.6 +24.3 82 +39 +39 очень
душно
1010.3 1007.1 +33.8
00 17.10 СВ 1 5000 м мгла 10/6 330 м
[Sc As op]
+24.6 +23.5 94 +33 +34 очень
душно
1012.9 1009.7 +23.6
03 17.10 З 1 7000 м 8/5 330 м
[Cu hum Ac As Ci fib]
+28.8 +24.2 76 +40 +47 очень
душно
1012.4 1009.2
06 17.10 СВ 1 8000 м 8/6 400 м
[Cu med, cong Ac As Ci fib]
+31.6 +24.6 66 +44 +51 опасность
перегрева
1008.2 1005.0
09 17.10 ЮЗ 3 7000 м гроза без осадков 8/6 360 м
[Cb cap Ac As Ci fib]
+31.8 +24.2 64 +44 +45 опасность
перегрева
1006.5 1003.3
12 17.10 СЗ 6 5000 м в посл. час дождь {гроза} 10/8 360 м
[Cb cap As op]
+24.0 +22.7 92 +31 +31 очень
душно
1010.7 1007.5 +33.0 0.2
00 18.10 ЮВ 2 5000 м в посл. час дождь 9/6 300 м
[Cu hum Ac As]
+23.5 +22.9 96 +31 +32 очень
душно
1012.7 1009.5 +22.4 0.2
03 18.10 штиль 0 8000 м 9/5 360 м
[Cu hum Ac As]
+27.4 +22.6 75 +36 +41 очень
душно
1013.1 1009.9
06 18.10 штиль 0 9000 м 5/5 420 м
[Cu med, cong Ac trans]
+31.5 +21.6 56 +40 +52 опасность
солнечного
удара
1009.2 1005.9
09 18.10 СЗ 2 8000 м 5/5 400 м
[Cb calv Ac trans Ci fib]
+31.6 +22.7 59 +41 +43 опасность
перегрева
1007.9 1004.7
12 18.10 З 5 5000 м гроза без осадков 10/6 360 м
[Cb cap As op]
+25.4 +22.8 86 +34 +34 очень
душно
1011.7 1008.5 +33.0
00 19.10 ЮВ 2 6000 м {дождь} 8/4 400 м
[Cu hum Ac trans]
+23.1 +22.2 95 +32 +33 очень
душно
1013.1 1009.9 +22.4 26
03 19.10 ЮВ 2 8000 м 9/4 420 м
[Cu hum Ac trans]
+27.2 +22.6 76 +36 +42 очень
душно
1012.5 1009.3
06 19.10 ЮВ 2 10 км 5/5 480 м
[Cu med, cong Ac trans]
+31.0 +22.9 62 +41 +50 опасность
перегрева
1008.9 1006.7
09 19.10 С 2 8000 м в посл. час гроза {дождь} 8/5 400 м
[Cb cap Ac As]
+24.5 +23.6 95 +33 +34 очень
душно
1008.5 1005.3 7
12 19.10 штиль 0 7000 м зарница {гроза, дождь} 10/5 400 м
[Cb cap As trans]
+23.9 +23.3 96 +32 +32 очень
душно
1011.2 1008.0 +32.6 7
00 20.10 штиль 0 4000 м дымка 8/5 330 м
[Sc Ac As Ci fib]
+24.0 +23.3 96 +32 +33 очень
душно
1013.4 1010.2 +21.2 7
03 20.10 штиль 0 8000 м 8/5 300 м
[Cu med, cong Ac As Ci fib]
+27.9 +23.6 77 +38 +46 очень
душно
1013.6 1010.4
06 20.10 ЮЗ 2 6000 м слабый дождь 9/6 300 м
[Cb cap Ac As Ci fib]
+24.9 +23.4 91 +33 +38 очень
душно
1009.6 1006.4 1
09 20.10 В 2 8000 м {дождь} 9/5 400 м
[Cb cap Ac As]
+27.4 +24.0 82 +38 +39 очень
душно
1008.7 1005.5 0.1
12 20.10 С 3 6000 м {дождь} 10/5 400 м
[Cb cap As op]
+25.4 +23.8 91 +35 +35 очень
душно
1013.0 1009.8 +31.0 0.2
00 21.10 Ю 2 5000 м дымка 10/6 300 м
[Sc As op]
+23.4 +22.8 96 +33 +33 очень
душно
1014.0 1010.7 +22.8
03 21.10 В 2 7000 м 9/6 330 м
[Cu hum Ac As Ci fib]
+27.6 +23.8 80 +38 +42 очень
душно
1014.1 1010.8
06 21.10 ЮВ 3 7000 м 8/5 330 м
[Cu hum Ac As Ci fib]
+30.2 +23.9 69 +42 +47 опасность
перегрева
1010.5 1007.3
09 21.10 ЮВ 2 9000 м 5/4 400 м
[Cb calv Ac trans Ci sp]
+29.1 +22.0 66 +38 +40 очень
душно
1009.2 1006.0

 

Местоположение метеостанции Sintang (Индонезия): широта 0.12 долгота 111.53 высота над уровнем моря 30 м.

В архиве по умолчанию представлена погода в Sintang за последнюю неделю. Архивные данные за месяц целиком и за предыдущие месяцы, начиная с января 2011 года, Вы можете получить, выбрав интересующий диапазон дат из раскрывающегося списка и нажав кнопку "Ввод!".


*Определитесь, кто Вы:
робот инопланетянин человек

Внимание! Время в таблицах - всемирное. Для получения местного времени необходимо прибавить поправку, которая в Sintang равна 7 ч.

Смотрите также архив погоды в соседних городах и на ближайших метеорологических станциях:

Погода в Nangapinoh (Индонезия) (59 км)
Погода в Putussibau (Индонезия) (176 км)
Погода в Kuching (Малайзия) (202 км)
Погода в Pontianak (Индонезия) (239 км)
Погода в Sibu (Малайзия) (248 км)
Погода в Ketapang (Индонезия) (280 км)
Погода в Palangkaraya (Индонезия) (302 км)
Погода в Paloh (Индонезия) (309 км)
Погода в Pangkalan Bun (Индонезия) (314 км)
Погода в Bintulu (Малайзия) (381 км)

Пояснения к столбцам:

Ветер - указаны скорость ветра в м/с - средняя за 10 мин, порывы в срок и между сроками (в фигурных скобках) и направление, откуда дует ветер: С - северный, СВ - северо-восточный, В - восточный, ЮВ - юго-восточный, Ю - южный, ЮЗ - юго-западный, З - западный, СЗ - северо-западный.
Видимость - горизонтальная дальность видимости в метрах или километрах. При видимости от 1 до 10 км при отсутствии осадков обычно наблюдается дымка, при ухудшении видимости до 1 км и менее - туман. В сухую погоду видимость может ухудшаться дымом, пылью или мглою.
Явления - указаны атмосферные явления, наблюдавшиеся в срок или в последний час перед сроком; фигурными скобками обозначены явления, наблюдавшиеся между сроками (за 1-3 часа до срока); квадратными скобками обозначены град или гололедные отложения с указанием их диаметра в мм.
Облачность - указаны через наклонную черту общая и нижняя облачность в баллах и высота нижней границы облаков в метрах; квадратными скобками обозначены формы облаков: Ci - перистые, Cs - перисто-слоистые, Cc - перисто-кучевые, Ac - высококучевые, As - высокослоистые, Sc - слоисто-кучевые, Ns - слоисто-дождевые, Cu - кучевые, Cb - кучево-дождевые. Подробнее классификацию облаков см. в Атласе облаков (PDF).
T - Температура воздуха - температура, измеренная на высоте 2 м над землей.
Td - Температура точки росы - температура, при понижении до которой содержащийся в воздухе водяной пар достигнет насыщения.
f - Относительная влажность воздуха - влажноcть воздуха, измеренная на высоте 2 м над землей.
Te - Эффективная температура - температура, которую ощущает одетый по сезону человек в тени. Характеристика душности погоды. При расчете учитывается влияние влажности воздуха и скорости ветра на теплоощущения человека.
Tes - Эффективная температура на солнце - температура, которую ощущает человек, с поправкой на солнечный нагрев. Характеристика знойности погоды. Зависит от высоты солнца над горизонтом, облачности и скорости ветра. Ночью, в пасмурную погоду, а также при ветре 12 м/с и более поправка равна нулю.
P - Атмосферное давление - приведенное к уровню моря атмосферное давление.
Po - Атмосферное давление - измеренное на уровне метеостанции атмосферное давление.
Tmin - Минимальная температура - минимум температуры воздуха на высоте 2 м над землей.
Tmax - Максимальная температура - максимум температуры воздуха на высоте 2 м над землей.
R - Количество осадков - Количество выпавших осадков за период времени, мм. При наведении курсора мыши на число - период времени, за который выпало указанное количество осадков.
R24 - Количество осадков - Количество выпавших осадков за 24 часа, мм.
S - Снежный покров - Высота снежного покрова, см. При наведении курсора мыши на число - состояние снежного покрова и степень покрытия местности в баллах.